星链-31045 (STARLINK-31045 )

导读 | 星芒AI

STARLINK-31045 是 SpaceX Starlink 项目中的一颗低轨通信卫星,属于第三代 Starlink 卫星(也称为 v1.5 或 Block V)。该卫星于 2023 年发射,旨在为全球提供高速、低延迟的互联网服务。它运行在约 540 公里的轨道高度,配备先进推进系统和激光通信链路,以提升网络性能和卫星间通信能力。作为 Starlink 卫星群的一部分,STARLINK-31045 有助于扩大覆盖范围,特别是在偏远和网络基础设施薄弱的地区。

基本信息
目录编号:
58541
目录名称:
STARLINK-31045
国际标识:
2023-192L
轨道中心:
EARTH
卫星名称:
星链-31045
卫星全名:
星链-31045 (STARLINK-31045 )
卫星状态:
在轨 (已飞行693 天)
发射日期:
2023-12-08 UTC
国别 :
美国 (US)
星等 :
--
轨道信息
数据来源 国际轨道数据
星历时间: 2025-10-30T18:50:19+0800
1天前
查看轨道信息
半长轴: 6853.364km
偏心率: 0.0001268
轨道倾角: 53.161°
近地点辐角 86.298°
升交点赤经 24.528°
平近点角 273.816°
近地点: 474.359km
远地点: 476.099km
周期: 94.106分钟
每日圈数: 15.301963
详细信息
固有亮度:
5
最大亮度:
0.3
卫星平台:
Starlink v2.0 mini
覆盖范围:
全球
运营商:
太空探索技术公司
运营商所在国:
美国
制造商(研发单位):
太空探索技术公司
制造商所在国:
美国
使用方式:
暂无
卫星简介
星链(Starlink)计划是由太空探索技术公司(SpaceX)提出的一个巨型低轨卫星互联网星座项目,计划在2019年至2024年间在太空搭建由约1.2万颗卫星组成的“星链”网络,其中1584颗将部署在地球上空550千米处的近地轨道,并从2020年开始工作。该卫星仍在工作。
2D轨道图
3D轨道图
轨道高度分析图
轨道倾角分析图
轨道综合分析图
查看轨道综合分析图